Location: Aucun
(42.9667°N, 0.1667°W)
Time: 20:34:03
(UTC+00:00)

Meteor 1-27 - Pass Details

Date: 17 February 2020
Orbit: 838 x 892 km, 81.3° (Epoch: 03 April)

Event Time Altitude Azimuth Distance (km) Brightness Sun altitude
Rises 05:25:33 0° 198° (SSW) 3,390 7.2 -17.2°
Reaches altitude 10° 05:28:00 10° 201° (SSW) 2,454 6.4 -16.8°
Maximum altitude 05:33:29 62° 282° (WNW) 941 4.1 -15.8°
Drops below altitude 10° 05:39:01 10° 4° (N) 2,463 6.6 -14.7°
Sets 05:41:28 0° 7° (N) 3,404 7.4 -14.3°
